Date,TemperatureHighF,TemperatureAvgF,TemperatureLowF,DewpointHighF,DewpointAvgF,DewpointLowF,HumidityHigh,HumidityAvg,HumidityLow,PressureMaxIn,PressureMinIn,WindSpeedMaxMPH,WindSpeedAvgMPH,GustSpeedMaxMPH,PrecipitationSumIn
2013-2-1,61.0,55.5,51.6,21.6,13.3,-3.7,30,20,8,30.45,30.38,13,4,12,0.00
2013-2-2,51.6,51.6,51.6,21.2,21.2,21.2,30,30,30,30.40,30.40,2,2,0,0.00
2013-2-3,51.6,51.6,51.6,21.2,21.2,21.2,30,30,30,30.40,30.40,2,2,0,0.00
2013-2-4,74.5,57.5,51.6,53.1,29.8,21.2,80,36,21,30.40,29.99,12,2,10,0.00
2013-2-5,69.9,60.9,57.5,59.4,52.2,35.9,100,76,36,30.24,30.11,11,2,0,0.00
2013-2-6,76.5,63.1,56.3,58.4,49.4,22.1,95,67,16,30.23,30.05,17,6,0,0.00
2013-2-7,82.8,64.9,55.6,53.6,38.8,-0.2,81,46,5,30.32,29.96,26,9,0,0.00
2013-2-8,67.3,54.5,44.5,32.7,14.1,-10.5,50,25,5,30.49,30.31,23,5,0,0.00
2013-2-9,59.1,50.4,47.3,58.1,39.7,20.5,97,69,30,30.37,29.98,20,7,0,0.00
2013-2-10,69.9,60.0,47.6,61.7,21.3,-11.3,98,35,5,30.26,29.87,23,4,0,0.63
2013-2-11,57.7,52.1,48.7,30.1,15.0,-6.7,48,25,8,30.39,30.23,15,4,0,0.00
2013-2-12,51.7,47.4,42.1,44.6,38.7,29.6,91,72,47,30.29,30.10,21,4,0,0.35
2013-2-13,59.4,46.5,39.2,31.6,20.7,-9.6,68,42,9,30.42,30.23,20,4,0,0.00
2013-2-14,71.5,53.6,35.5,37.9,18.5,-11.0,96,39,5,30.37,30.19,10,2,0,0.00
2013-2-15,54.5,47.4,36.0,24.3,8.8,-13.6,48,23,7,30.68,30.31,19,6,0,0.00
2013-2-16,59.7,44.0,30.7,21.7,6.8,-14.8,66,28,6,30.74,30.42,11,2,0,0.00
2013-2-17,71.5,54.8,36.3,31.9,13.4,-9.9,63,27,4,30.45,30.13,23,7,0,0.00
2013-2-18,79.3,62.6,52.4,43.6,23.3,-5.3,53,27,5,30.36,29.93,32,12,0,0.00
2013-2-19,63.1,53.2,40.7,21.1,4.4,-12.7,42,16,6,30.59,30.35,13,4,0,0.00
2013-2-20,53.1,45.6,41.9,32.4,24.7,6.5,61,45,16,30.44,30.05,17,6,0,0.08
2013-2-21,69.6,53.5,42.8,44.2,22.5,-8.0,90,39,5,30.21,29.85,22,6,0,0.12
2013-2-22,49.5,40.5,32.1,27.7,12.5,-6.6,61,34,12,30.44,30.19,17,6,0,0.00
2013-2-23,45.6,41.1,32.8,18.6,10.9,0.8,51,30,22,30.37,30.30,10,1,0,0.00
2013-2-24,43.8,43.8,43.8,8.5,8.5,8.5,23,23,23,30.33,30.33,0,0,0,0.00
2013-2-25,61.9,47.6,40.4,39.5,15.8,-5.5,53,31,8,30.33,29.67,31,8,6,0.04
2013-2-26,60.2,47.3,40.3,27.5,15.8,-7.5,50,32,8,30.21,29.94,25,7,0,0.00
2013-2-27,58.1,47.3,37.7,25.2,7.6,-12.1,55,25,6,30.51,30.17,23,8,0,0.00
2013-2-28,59.2,46.8,35.9,21.0,5.4,-12.5,51,23,6,30.57,30.37,23,8,0,0.00
2013-3-1,56.7,45.5,41.2,17.2,10.2,-11.3,35,25,8,30.58,30.38,19,4,13,0.00
2013-3-2,56.8,42.7,31.9,18.9,4.9,-17.2,54,26,6,30.73,30.47,20,6,0,0.00
2013-3-3,72.0,56.3,38.6,24.0,5.3,-11.1,33,15,5,30.51,30.03,24,9,0,0.00
2013-3-4,86.8,65.5,56.2,30.3,23.4,0.3,35,23,4,30.05,29.75,23,9,20,0.00
2013-3-5,64.4,50.7,43.9,27.7,5.5,-12.3,39,18,7,30.65,29.99,32,12,0,0.00
2013-3-6,65.2,49.6,38.3,10.5,-1.0,-17.9,29,14,5,30.74,30.43,13,3,0,0.00
2013-3-7,72.1,57.2,42.2,17.2,3.0,-9.6,30,13,5,30.49,30.25,21,7,0,0.00
2013-3-8,63.8,58.6,52.9,47.6,38.0,16.9,61,47,20,30.44,30.21,21,7,0,0.00
2013-3-9,70.5,64.7,60.2,62.5,52.2,42.6,93,65,48,30.21,29.85,23,9,0,1.42
2013-3-10,64.1,51.6,41.0,58.5,24.9,8.7,94,39,19,30.36,29.95,32,8,0,0.43
2013-3-11,60.9,46.8,34.3,33.3,8.6,-17.7,84,29,6,30.40,30.21,18,4,0,0.00
2013-3-12,70.1,54.7,39.4,24.1,4.7,-11.3,42,17,5,30.58,30.27,15,3,0,0.00
2013-3-13,75.7,57.5,41.5,35.0,12.6,-11.9,65,23,4,30.72,30.48,12,3,0,0.00
2013-3-14,79.4,63.6,46.8,25.3,15.9,-1.2,41,18,5,30.59,30.33,19,7,0,0.00
2013-3-15,83.3,68.7,54.8,45.3,23.8,-2.2,67,25,4,30.37,30.09,22,8,0,0.00
2013-3-16,82.5,70.4,58.2,46.0,34.0,22.8,63,29,12,30.11,29.86,24,10,0,0.00
2013-4-1,84.0,75.1,68.2,35.9,18.1,-5.6,29,14,4,30.23,30.11,12,3,10,0.98
2013-4-2,70.9,65.2,53.0,56.5,43.9,26.7,77,47,26,30.25,30.09,24,6,0,0.04
2013-4-3,55.1,49.1,44.4,47.3,40.8,30.8,89,74,42,30.42,30.20,15,6,11,1.18
2013-4-4,51.7,46.9,43.3,41.0,32.2,23.9,90,59,37,30.48,30.35,19,6,0,0.00
2013-4-5,67.1,56.0,41.7,39.2,12.1,-3.7,85,29,8,30.49,30.39,9,2,5,0.00
2013-4-6,60.8,60.8,60.8,1.6,1.6,1.6,9,9,9,30.40,30.40,2,2,0,0.00
2013-4-7,60.8,60.8,60.8,1.6,1.6,1.6,9,9,9,30.40,30.40,2,2,0,0.00
2013-4-8,75.9,69.0,60.8,48.8,29.9,1.6,44,27,9,30.40,29.86,21,7,0,0.00
2013-4-9,71.8,70.8,69.4,51.5,48.1,46.0,53,45,40,29.93,29.90,19,10,0,0.00
2013-4-12,81.9,69.8,56.8,30.9,13.8,-9.5,30,14,4,30.25,30.06,12,3,6,0.63
2013-4-13,79.8,67.6,53.6,34.8,21.2,2.4,48,20,6,30.23,29.98,21,6,0,0.00
2013-4-14,83.0,70.2,57.7,53.2,39.2,26.9,58,34,17,30.01,29.72,21,8,0,0.00
2013-4-15,88.3,77.2,68.9,60.4,47.5,32.9,72,39,16,29.96,29.81,22,8,0,0.00
2013-4-16,88.5,78.8,72.3,56.6,45.4,31.4,57,34,14,30.11,29.95,17,9,0,0.00
2013-4-17,87.1,79.9,72.0,65.3,49.2,35.1,79,36,17,30.11,29.81,28,11,12,0.00
2013-4-18,76.8,55.5,44.1,68.0,32.3,11.7,92,46,18,30.42,29.73,30,13,0,0.94
2013-4-19,64.8,51.3,38.0,30.0,10.1,-13.2,65,25,5,30.54,30.33,20,5,0,0.00
2013-4-20,72.8,60.3,45.3,19.4,5.4,-9.9,33,13,4,30.43,30.21,22,7,0,0.00
2013-4-21,73.6,60.6,48.4,36.6,26.6,12.1,58,30,11,30.44,30.24,16,4,0,0.00
2013-4-22,80.7,67.6,54.0,41.0,32.7,22.3,55,30,13,30.32,30.04,20,7,0,0.00
2013-4-23,68.9,55.0,40.4,54.2,38.9,27.8,76,55,36,30.45,30.02,22,10,0,0.00
2013-4-24,65.4,50.3,39.1,34.7,13.5,-11.2,77,30,6,30.58,30.38,22,7,0,0.08
2013-4-25,77.6,63.4,52.5,23.4,10.2,-9.6,24,14,5,30.57,30.32,16,4,0,0.00
2013-4-26,80.3,67.9,60.4,54.7,37.3,20.6,56,33,21,30.37,30.16,19,6,0,0.00
2013-4-27,76.6,69.0,61.4,59.2,42.2,20.7,71,41,16,30.31,30.19,16,5,0,0.00
2013-4-28,86.4,68.3,53.7,55.0,43.0,23.0,94,47,14,30.26,30.03,12,2,0,0.00
2013-4-29,87.9,75.0,60.8,59.3,39.0,10.0,90,35,7,30.14,29.96,18,5,0,0.00
2013-4-30,84.2,71.6,59.5,56.3,43.5,28.6,84,41,16,30.07,29.90,17,5,0,0.00
2013-5-1,84.6,72.9,65.0,58.3,47.3,30.8,77,44,17,30.17,29.99,12,5,0,0.00
2013-5-2,72.2,72.2,72.2,45.8,45.8,45.8,39,39,39,30.15,30.15,4,4,0,0.00
2013-5-3,72.2,66.8,49.0,45.8,25.2,-10.1,40,26,5,30.43,30.15,27,6,0,0.00
2013-5-4,74.8,58.9,41.5,38.3,12.7,-11.1,82,27,4,30.29,30.08,28,6,0,0.00
2013-5-5,69.8,58.1,47.7,36.9,20.8,2.8,45,26,9,30.37,30.22,20,6,0,0.00
2013-5-6,60.2,53.0,49.9,47.4,41.5,33.1,87,66,39,30.35,30.29,5,0,0,0.00
2013-5-9,72.3,69.5,54.9,65.2,57.0,39.0,90,65,47,30.34,30.06,13,3,11,0.35
2013-5-10,86.7,73.6,66.9,66.6,47.3,20.2,93,49,11,30.24,30.08,13,3,0,0.00
2013-5-11,81.6,71.7,62.4,45.6,25.3,-1.8,51,23,5,30.37,30.22,21,5,0,0.00
2013-5-12,89.9,70.0,60.1,35.9,8.7,-10.6,30,11,3,30.48,30.30,15,4,0,0.00
2013-5-13,89.5,74.3,55.3,30.3,13.8,-4.3,35,12,3,30.42,30.24,17,5,0,0.00
2013-5-14,88.8,76.8,61.1,45.5,28.0,1.7,56,20,5,30.35,30.15,22,8,0,0.00
2013-5-15,78.1,71.8,62.8,71.5,55.7,42.1,94,59,31,30.23,29.94,31,10,0,2.09
2013-5-16,83.5,71.2,62.8,64.1,56.6,44.5,92,65,30,30.09,29.92,17,10,8,0.71
2013-5-17,93.2,81.2,72.6,70.4,54.5,34.3,91,47,15,30.06,29.92,21,6,0,0.00
2013-5-18,94.7,82.7,73.2,57.8,48.8,33.3,58,34,13,30.12,29.92,21,9,0,0.00
2013-5-19,90.9,81.6,71.8,56.5,46.2,36.3,58,31,17,30.04,29.82,24,11,0,0.00
2013-5-20,92.2,82.0,75.1,56.1,48.2,35.4,51,33,15,30.03,29.80,23,11,0,0.00
2013-5-21,83.8,78.9,61.9,57.7,52.6,40.2,86,41,28,29.99,29.84,27,10,0,0.16
2013-6-4,93.7,86.0,61.9,57.6,39.3,27.5,86,20,11,30.20,29.93,20,8,16,1.10
2013-6-5,94.8,83.1,74.5,57.4,44.6,23.6,54,28,9,30.13,29.91,18,4,0,0.00
2013-6-6,82.6,75.4,68.4,68.3,53.8,40.4,89,50,26,30.18,30.00,18,4,0,0.91
2013-6-7,90.1,75.7,64.9,66.4,34.4,-1.4,96,36,4,30.22,30.06,15,3,0,0.00
2013-6-8,91.5,77.6,63.8,56.6,35.3,10.2,73,28,7,30.18,29.96,15,4,0,0.00
2013-6-9,93.7,79.3,67.2,69.5,47.2,22.8,96,39,10,30.18,30.01,21,5,0,1.30
2013-6-10,101.3,85.6,72.0,62.6,38.8,3.2,69,28,3,30.20,30.03,18,5,0,0.00
2013-6-11,95.8,85.3,76.2,61.1,45.4,28.8,59,29,11,30.22,30.08,18,7,0,0.00
2013-6-12,96.7,85.9,79.7,57.1,45.3,27.8,46,28,10,30.23,30.08,18,7,14,0.00
2013-6-13,105.5,88.7,79.7,53.2,37.9,3.3,40,20,3,30.23,30.03,15,5,0,0.00
2013-6-14,101.6,88.1,76.3,57.1,39.3,7.5,50,22,4,30.19,30.02,10,2,0,0.00
2013-6-15,92.4,84.6,70.6,64.6,48.4,35.7,74,32,16,30.20,30.10,27,2,0,0.04
2013-6-16,89.7,89.7,89.7,43.3,43.3,43.3,20,20,20,30.12,30.12,1,1,0,0.04
2013-6-17,89.7,89.7,89.7,43.3,43.3,43.3,20,20,20,30.12,30.12,1,1,0,0.04
2013-6-18,89.7,89.7,89.7,43.3,43.3,43.3,20,20,20,30.12,30.12,1,1,0,0.04
2013-6-19,89.7,89.7,89.7,43.3,43.3,43.3,20,20,20,30.12,30.12,1,1,0,0.04
2013-6-20,96.6,91.4,85.3,43.3,35.3,17.3,20,15,6,30.22,30.08,18,6,12,0.47
2013-6-21,97.5,92.2,78.6,55.5,30.1,17.9,44,12,7,30.25,30.11,19,8,11,0.47
2013-6-22,94.2,94.2,94.2,20.7,20.7,20.7,7,7,7,30.13,30.13,7,7,0,0.00
2013-6-23,94.2,94.2,94.2,20.7,20.7,20.7,7,7,7,30.13,30.13,7,7,0,0.00
2013-6-24,94.2,94.2,94.2,20.7,20.7,20.7,7,7,7,30.13,30.13,7,7,0,0.00
2013-6-25,99.1,93.9,83.3,51.6,24.5,14.5,32,9,5,30.19,29.96,20,9,23,0.00
2013-6-26,99.5,94.3,85.5,43.7,28.7,21.4,23,10,7,30.15,29.98,18,8,16,0.00
2013-6-27,107.2,89.7,79.3,54.9,38.3,10.2,42,20,4,30.21,30.01,14,5,0,0.00
2013-6-28,86.4,86.4,86.0,45.3,45.3,44.9,24,24,24,30.14,30.12,4,3,0,0.00
2013-6-29,86.4,86.4,86.4,45.3,45.3,45.3,24,24,24,30.13,30.13,3,3,0,0.00
2013-6-30,86.4,86.4,86.4,45.3,45.3,45.3,24,24,24,30.13,30.13,3,3,0,0.00
2013-7-1,89.8,84.2,76.1,45.3,30.1,2.3,24,16,5,30.22,30.12,19,5,16,0.00
2013-7-2,90.3,78.9,66.5,44.2,21.3,-5.3,44,16,3,30.27,30.15,15,3,0,0.00
2013-7-3,94.7,80.8,64.6,48.7,22.5,-5.1,50,17,3,30.25,30.09,11,2,0,0.00
2013-7-4,85.5,85.5,85.5,14.4,14.4,14.4,7,7,7,30.13,30.13,0,0,0,0.00
2013-7-5,85.5,85.5,85.5,14.4,14.4,14.4,7,7,7,30.13,30.13,0,0,0,0.00
2013-7-6,85.5,85.5,85.5,14.4,14.4,14.4,7,7,7,30.13,30.13,0,0,0,0.00
2013-7-7,85.5,85.5,85.5,14.4,14.4,14.4,7,7,7,30.13,30.13,0,0,0,0.00
2013-7-8,102.3,88.4,84.1,47.3,25.8,14.2,26,11,5,30.24,30.13,16,4,9,0.00
2013-7-9,87.2,87.2,87.2,35.5,35.5,35.5,16,16,16,30.23,30.23,5,5,0,0.00
2013-7-10,106.6,93.2,87.2,40.1,26.0,-3.9,18,10,3,30.23,30.02,14,5,11,0.00
2013-7-11,109.0,90.3,84.3,48.5,35.9,-3.5,28,18,2,30.17,30.00,19,6,0,0.00
2013-7-12,107.0,92.3,83.7,47.5,32.3,4.8,27,16,3,30.18,29.99,13,8,7,0.00
2013-7-13,99.4,99.4,99.4,16.6,16.6,16.6,5,5,5,30.01,30.01,7,7,0,0.00
2013-7-14,99.4,99.4,99.4,16.6,16.6,16.6,5,5,5,30.01,30.01,7,7,0,0.00
2013-7-15,99.4,85.9,72.5,68.0,42.8,16.6,77,40,5,30.26,30.01,8,4,4,0.71
2013-7-16,81.7,78.3,75.8,68.0,60.7,54.0,77,57,43,30.32,30.23,8,4,0,0.71
2013-7-17,95.2,80.9,75.6,68.8,54.3,27.7,78,43,11,30.37,30.25,15,3,12,0.16
2013-7-18,100.2,84.5,72.9,73.8,47.4,12.9,95,39,6,30.37,30.16,12,1,0,0.00
2013-7-19,87.5,87.5,87.5,43.9,43.9,43.9,22,22,22,30.20,30.20,0,0,0,0.00
2013-7-20,87.5,87.5,87.5,43.9,43.9,43.9,22,22,22,30.20,30.20,0,0,0,0.00
2013-7-21,87.5,87.5,87.5,43.9,43.9,43.9,22,22,22,30.20,30.20,0,0,0,0.00
2013-7-22,100.0,90.9,87.5,46.2,38.6,21.8,23,17,7,30.20,29.99,18,4,16,0.04
2013-7-23,100.6,89.7,80.6,59.9,41.8,21.6,49,22,7,30.17,29.95,21,7,0,0.00
2013-7-24,101.6,86.5,76.7,53.4,41.2,10.3,43,24,4,30.24,30.02,20,5,0,0.00
2013-7-25,100.4,86.2,76.1,57.0,44.2,22.2,51,27,8,30.22,30.11,12,4,0,0.00
2013-7-26,97.7,84.5,77.1,64.9,49.4,26.5,65,32,9,30.22,30.01,24,6,0,0.12
2013-7-27,93.4,81.2,74.1,56.5,39.6,13.4,51,28,7,30.22,30.06,16,5,0,0.00
2013-7-28,101.5,82.5,69.4,62.4,42.6,14.6,77,30,7,30.21,30.01,15,3,0,0.00
2013-7-29,99.7,87.0,77.5,62.1,43.8,14.1,58,28,6,30.20,30.05,18,7,0,0.00
2013-7-30,101.7,89.0,79.1,56.9,37.3,18.6,46,20,7,30.26,30.07,22,7,0,0.00
2013-7-31,108.0,91.5,80.0,48.2,31.7,-2.6,31,14,3,30.23,30.02,17,4,0,0.00
2013-8-1,108.5,92.6,81.1,59.3,34.9,5.5,46,17,3,30.19,30.00,13,2,0,0.00
2013-8-2,87.7,85.2,83.6,48.1,45.9,42.3,29,26,21,30.13,30.10,12,5,0,0.00
2013-8-6,105.3,98.3,91.2,29.7,18.8,5.4,11,6,3,30.03,29.91,17,6,17,0.00
2013-8-7,106.8,93.1,81.3,49.8,30.3,-0.3,32,14,3,30.08,29.88,17,7,0,0.00
2013-8-8,105.8,92.2,80.7,55.4,30.3,3.9,41,15,3,30.06,29.89,17,6,0,0.00
2013-8-9,109.0,91.7,82.0,48.5,27.4,-2.9,30,13,2,30.15,29.96,22,4,0,0.00
2013-8-10,84.1,80.3,78.8,53.5,47.9,45.3,37,32,29,30.19,30.14,5,3,0,0.00
2013-8-11,80.1,80.1,80.1,47.6,47.6,47.6,32,32,32,30.17,30.17,3,3,0,0.00
2013-8-12,101.2,86.9,80.1,47.6,33.8,12.9,32,20,5,30.19,30.12,13,4,0,0.00
2013-8-13,102.4,96.3,86.3,44.5,19.7,9.4,23,7,4,30.19,30.05,17,5,0,0.00
2013-8-14,99.2,99.2,99.2,16.4,16.4,16.4,5,5,5,30.05,30.05,5,5,0,0.00
2013-8-15,99.2,90.2,75.3,41.4,25.0,15.0,26,11,5,30.24,30.05,13,4,0,1.42
2013-8-16,90.1,78.7,68.3,59.8,39.2,18.9,71,29,9,30.25,30.11,21,3,0,0.12
2013-8-17,76.9,74.3,66.9,51.7,37.4,31.5,58,28,21,30.28,30.24,11,2,0,0.00
2013-8-18,76.2,76.2,76.2,33.4,33.4,33.4,21,21,21,30.26,30.26,2,2,0,0.00
2013-8-19,76.2,76.2,76.2,33.4,33.4,33.4,21,21,21,30.26,30.26,2,2,0,0.00
2013-8-20,76.2,76.2,76.2,33.4,33.4,33.4,21,21,21,30.26,30.26,2,2,0,0.00
2013-8-21,76.2,76.2,76.2,33.4,33.4,33.4,21,21,21,30.26,30.26,2,2,0,0.00
2013-8-22,76.2,76.2,76.2,33.4,33.4,33.4,21,21,21,30.26,30.26,2,2,0,0.00
2013-8-23,76.2,76.2,76.2,33.4,33.4,33.4,21,21,21,30.26,30.26,2,2,0,0.00
2013-8-24,76.2,76.2,76.2,33.4,33.4,33.4,21,21,21,30.26,30.26,2,2,0,0.00
2013-8-25,76.2,76.2,76.2,33.4,33.4,33.4,21,21,21,30.26,30.26,2,2,0,0.00
2013-8-26,99.5,83.3,76.2,47.9,30.2,2.3,31,17,4,30.29,30.18,19,4,13,0.00
2013-8-27,81.4,81.4,81.4,47.9,47.9,47.9,31,31,31,30.23,30.23,7,7,0,0.00